Simultaneous Nadir Overpasses (SNOs) Predictions

Prediction of SNOs between GOES-16 and METOP-C Satellite Orbit:

Table of predicted SNOs for the next 14.0 days since TLE Epoch: 10/22/2022
Index Date Time (GOES-16) GOES-16 Lat,Lon METOP-C Lat,Lon Distance(km) Time Diff (sec)
1 10/22/2022 14:20:28 -0.07, -75.21 -0.73, -72.36 324.99 80
2 10/24/2022 02:39:29 0.07, -75.20 -0.35, -76.95 200.07 80
3 10/25/2022 02:16:11 0.06, -75.21 0.78, -71.96 369.75 80
4 10/26/2022 14:35:03 -0.06, -75.24 0.25, -76.52 146.59 80
5 10/27/2022 14:17:05 -0.06, -75.25 -0.87, -71.53 423.28 80
6 10/29/2022 02:36:07 0.06, -75.24 -0.12, -76.13 101.41 80
7 10/30/2022 02:12:47 0.05, -75.25 0.95, -71.13 468.57 80
8 10/31/2022 14:31:41 -0.05, -75.28 0.02, -75.70 47.64 80
9 11/03/2022 02:32:43 0.04, -75.29 0.02, -75.29 2.14 80
